Location: ???????
(38.3360°N, 23.6977°E)
Time: 23:49:00
(UTC+00:00)

BREEZE-M DEB (TANK) - Pass Details

Date: 17 November 2025
Orbit: 304 x 15917 km, 49.3° (Epoch: 09 December)

Event Time Altitude Azimuth Distance (km) Brightness Sun altitude
Rises 17:24:20 0° 296° (WNW) 2,352 6.5 -26.0°
Reaches altitude 10° 17:25:57 10° 312° (NW) 1,785 5.4 -26.4°
Enters shadow 17:28:32 26° 1° (N) 1,527 4.4 -26.9°
